Weather Roundup
Issued by NWS Chicago, IL

Home | Current Version | Previous Version | Text Only | Print | Product List | Glossary On
Versions: 1 2 3 4 5 6 7 8 9 10 11 12 13 14 15 16 17 18 19 20 21 22 23 24 25 26 27 28 29 30 31 32 33 34 35 36 37 38 39 40 41 42 43 44 45 46 47 48 49 50
000
NZUS59 KLOT 281808
HRRLOT

CHICAGO AREA WEATHER ROUNDUP
NATIONAL WEATHER SERVICE CHICAGO/ROMEOVILLE IL
100 PM CDT THU JUL 28 2016

NOTE: "FAIR" INDICATES FEW OR NO CLOUDS BELOW 12,000 FEET WITH NO
SIGNIFICANT WEATHER AND/OR OBSTRUCTIONS TO VISIBILITY.

* THESE STATIONS ARE NOT UNDER NWS QUALITY CONTROL. THEY ALSO MAY NOT
  REPORT WEATHER SUCH AS PRECIPITATION OR FOG.

ILZ005-006-012>014-019>023-281900-
NORTHEAST ILLINOIS

CITY           SKY/WX    TMP DP  RH WIND       PRES   REMARKS
OHARE          TSTM      74  71  91 S3        29.88S FOG
6HR MIN TEMP:  74; 6HR MAX TEMP:  84; 6HR PCP:  0.32;

MIDWAY         PTSUNNY   82  71  69 NE9       29.87F HX  86
6HR MIN TEMP:  72; 6HR MAX TEMP:  84; 6HR PCP:  0.01;

AURORA         SUNNY     85  71  63 S9        29.88F HX  90
6HR MIN TEMP:  72; 6HR MAX TEMP:  86;

LANSING*       PTSUNNY   84  67  57 S8        29.88F HX  87
JOLIET*        PTSUNNY   85  72  64 SW5       29.87F HX  91
WAUKEGAN       MOSUNNY   81  68  64 NE8       29.89F HX  84
6HR MIN TEMP:  71; 6HR MAX TEMP:  82;

DUPAGE AIRPORT CLOUDY    85  69  58 SE8       29.87F HX  89
6HR MIN TEMP:  72; 6HR MAX TEMP:  86;

WHEELING       MOSUNNY   79  69  71 E8        29.89F THUNDER HX  81
6HR MIN TEMP:  72; 6HR MAX TEMP:  82;

KANKAKEE*      PTSUNNY   83  69  62 SE6       29.89F HX  86
MORRIS*        SUNNY     84  71  65 S6        29.87F HX  89
LEWIS AIRPORT* MOSUNNY   84  67  56 S7        29.88S HX  86
NORTHERLY ISL    N/A     80  72  76 N5          N/A  HX  84
$$

WIZ051-052-058>065-066-070>072-281900-
SOUTHEAST WISCONSIN

CITY           SKY/WX    TMP DP  RH WIND       PRES   REMARKS
MILWAUKEE      PTSUNNY   77  67  71 NE14      29.92F
6HR MIN TEMP:  69; 6HR MAX TEMP:  78;

KENOSHA*       SUNNY     82  68  62 E8        29.90F HX  85
RACINE*        SUNNY     79  69  71 N12       29.92F HX  81
BURLINGTON     PTSUNNY   80  69  69 NE9       29.89F HX  83
WAUKESHA       CLOUDY    73  66  78 NE12      29.94F
$$

INZ001>003-010>013-019-020-281900-
NORTHWEST INDIANA

CITY           SKY/WX    TMP DP  RH WIND       PRES   REMARKS
GARY*          MOSUNNY   84  73  70 NE6       29.88F HX  91
MICHIGAN CITY* NOT AVBL
RENSSELAER*    NOT AVBL
VALPARAISO     MOSUNNY   85  64  49 E6        29.89F HX  86
$$

LMZ740>746-281900-
SOUTHERN LAKE MICHIGAN

STATION/POSITION TIME  SKY/WX   TEMP WIND        PRES    VSBY
                                AIR  DIR/SP/G
                 (UTC)          (F)  (DEG/KT/KT) (MB)    (MI)
HARRISON CRIB    1700            77   60/  5/  5   N/A
BURNHAM HARBOR   1800            79   30/  5/  7   N/A
CALUMET HARBOR   1700            79   40/  7/  8 1011.7F
BURNS HARBOR     1700            77   10/  6/  8 1012.9F
MICHIGAN CITY    1700            80  300/  6/  7   N/A
$$

ABBREVIATIONS USED IN REMARKS
   TC - TEMPERATURE IN CELSIUS
  WCI - WIND CHILL INDEX
   HX - HEAT INDEX
  VSB - VISIBILITY
$$




USA.gov is the U.S. government's official web portal to all federal, state and local government web resources and services.